SILO ALERT LOG
| Silo ID | Alert Type | Alert Message | Silo Type | Points | Depth (mm) | Strength | Temperature (°C) | Humidity (%) | Height (mm) | Volume (㎥) | Weight (t) | Flag | Time |
|---|---|---|---|---|---|---|---|---|---|---|---|---|---|
| DJSSD01 | Humidity | 습도센서 측정값이 80% 초과 | 평 | 793 | 2561 | 4661 | 6.1 | 82 | 5518 | 768.047 | 485.559 | 0 | 2024-01-10 17:39:33.000 |
| DJSAD12 | Humidity | 습도센서 측정값이 80% 초과 | 평 | 0 | 7700 | 0 | 3.3 | 86.3 | -120 | -17.075 | 0 | 31 | 2024-01-10 17:39:33.000 |
| DJHNR11 | Temperature | 온도센서 측정값이 0도 미만 | 호퍼 | 231 | 3242 | 1057 | -1.1 | 74.7 | 7137 | 100.012 | 63.227 | 11 | 2024-01-10 17:39:32.000 |
| DJSSD09 | Temperature | 온도센서 측정값이 0도 미만 | 평 | 114 | 2883 | 3047 | -45.4 | 0 | 4796 | 667.625 | 422.073 | 11 | 2024-01-10 17:39:31.000 |
| DJHNR01 | Humidity | 습도센서 측정값이 80% 초과 | 호퍼 | 471 | 4307 | 5026 | 5.2 | 99.9 | 11072 | 472.835 | 298.926 | 13 | 2024-01-10 17:39:31.000 |
| DJSAD17 | Humidity | 습도센서 측정값이 80% 초과 | 평 | 445 | 3129 | 4832 | 4.3 | 80.1 | 4450 | 443.143 | 280.155 | 0 | 2024-01-10 17:39:30.000 |
| DJSAD18 | Humidity | 습도센서 측정값이 80% 초과 | 평 | 117 | 1408 | 5816 | 5.1 | 80.8 | 6171 | 614.523 | 388.501 | 11 | 2024-01-10 17:39:30.000 |
| DJSSD12 | Temperature | 온도센서 상태 이상 | 호퍼 | 0 | 11350 | 0 | -999 | -999 | -120 | 0 | 0 | 31 | 2024-01-10 17:39:24.000 |
| DJHNR03 | Temperature | 온도센서 상태 이상 | 호퍼 | 0 | 15500 | 0 | -999 | -999 | -119 | 0 | 0 | 31 | 2024-01-10 17:39:23.000 |
| DJHNR12 | Humidity | 습도센서 측정값이 80% 초과 | 호퍼 | 0 | 10500 | 0 | 0.3 | 81.8 | -120 | 0 | 0 | 31 | 2024-01-10 17:39:23.000 |
| DJSAD03 | Humidity | 습도센서 측정값이 80% 초과 | 평 | 449 | 1652 | 6117 | 3.3 | 84.5 | 7127 | 295.055 | 186.534 | 0 | 2024-01-10 16:39:40.000 |
| DJSAD01 | Humidity | 습도센서 측정값이 80% 초과 | 평 | 451 | 1591 | 7282 | 1.9 | 88 | 7188 | 297.59 | 188.137 | 0 | 2024-01-10 16:39:40.000 |
| DJSAD02 | Humidity | 습도센서 측정값이 80% 초과 | 평 | 383 | 1136 | 4294 | 2.6 | 87.5 | 7643 | 316.396 | 200.025 | 11 | 2024-01-10 16:39:39.000 |
| DJSAD12 | Humidity | 습도센서 측정값이 80% 초과 | 평 | 0 | 7700 | 0 | 3.4 | 86.3 | -120 | -17.075 | 0 | 31 | 2024-01-10 16:39:33.000 |
| DJHNR11 | Temperature | 온도센서 측정값이 0도 미만 | 호퍼 | 232 | 3226 | 1053 | -0.8 | 74.7 | 7153 | 100.346 | 63.439 | 11 | 2024-01-10 16:39:33.000 |
| DJSSD05 | Temperature | 온도센서 측정값이 0도 미만 | 평 | 845 | 2554 | 4875 | -45.4 | 43.8 | 5525 | 768.988 | 486.154 | 0 | 2024-01-10 16:39:33.000 |
| DJSSD04 | Temperature | 온도센서 상태 이상 | 평 | 0 | 8200 | 0 | -999 | -999 | -120 | -16.702 | 0 | 31 | 2024-01-10 16:39:33.000 |
| DJSSD01 | Humidity | 습도센서 측정값이 80% 초과 | 평 | 795 | 2560 | 4645 | 6.2 | 81.8 | 5519 | 768.267 | 485.698 | 0 | 2024-01-10 16:39:33.000 |
| DJHNR01 | Humidity | 습도센서 측정값이 80% 초과 | 호퍼 | 472 | 4306 | 5032 | 5.6 | 99.9 | 11073 | 472.969 | 299.011 | 13 | 2024-01-10 16:39:32.000 |
| DJDJD04 | Humidity | 습도센서 측정값이 80% 초과 | 평 | 275 | 4205 | 4359 | 5.4 | 80.8 | 3474 | 420.998 | 266.155 | 11 | 2024-01-10 16:39:32.000 |
[첫 페이지] [10021] [10022] [10023] [10024] 10025 [10026] [10027] [10028] [10029] [마지막 페이지]